When you browse on this site, cookies collect data to enhance your experience and personalize the content and advertising you see.
Visit our Privacy Policy to learn more. By continuing to use the site, you agree to this use of cookies and data.
  • In Germany
  • List of Countries
  • For 7 days
  • Water Temperature
  • Satellite Maps
  • Weather Map
  • Weather Widgets
  • user-avatar
    Login

    Hourly Weather Biskira

    Today, 25 April, Thursday

    Time Temperature Precipitation Wind Pressure Humidity
    00:00 +26°C° 0 mm 3 mps 750 mmHg 33%
    01:00 +26°C° 0 mm 3 mps 750 mmHg 34%
    02:00 +25°C° 0 mm 2 mps 750 mmHg 35%
    03:00 +25°C° 0 mm 2 mps 750 mmHg 36%
    04:00 +24°C° 0 mm 2 mps 750 mmHg 35%
    05:00 +24°C° 0 mm 2 mps 751 mmHg 35%
    06:00 +25°C° 0 mm 1 mps 751 mmHg 30%
    07:00 +26°C° 0 mm 1 mps 751 mmHg 28%
    08:00 +27°C° 0 mm 1 mps 751 mmHg 26%
    09:00 +28°C° 0 mm 1 mps 752 mmHg 23%
    10:00 +29°C° 0 mm 2 mps 751 mmHg 21%
    11:00 +31°C° 0 mm 2 mps 751 mmHg 19%
    12:00 +33°C° 0 mm 3 mps 751 mmHg 17%
    13:00 +34°C° 0 mm 3 mps 751 mmHg 16%
    14:00 +34°C° 0 mm 3 mps 750 mmHg 16%
    15:00 +35°C° 0 mm 4 mps 750 mmHg 15%
    16:00 +35°C° 0 mm 3 mps 750 mmHg 15%
    17:00 +34°C° 0 mm 3 mps 750 mmHg 16%
    18:00 +34°C° 0 mm 3 mps 750 mmHg 17%
    19:00 +32°C° 0 mm 2 mps 751 mmHg 18%
    20:00 +31°C° 0 mm 2 mps 751 mmHg 20%
    21:00 +30°C° 0 mm 2 mps 751 mmHg 21%
    22:00 +30°C° 0 mm 2 mps 752 mmHg 21%
    23:00 +29°C° 0 mm 3 mps 752 mmHg 22%

    Tomorrow, 26 April, Friday

    Time Temperature Precipitation Wind Pressure Humidity
    00:00 +29°C° 0 mm 3 mps 752 mmHg 22%
    01:00 +28°C° 0 mm 3 mps 752 mmHg 24%
    02:00 +27°C° 0 mm 2 mps 752 mmHg 26%
    03:00 +26°C° 0 mm 2 mps 752 mmHg 27%
    04:00 +26°C° 0 mm 2 mps 752 mmHg 30%
    05:00 +26°C° 0 mm 3 mps 753 mmHg 33%
    06:00 +26°C° 0 mm 4 mps 753 mmHg 37%
    07:00 +28°C° 0 mm 4 mps 753 mmHg 33%
    08:00 +29°C° 0 mm 4 mps 754 mmHg 30%
    09:00 +32°C° 0 mm 5 mps 754 mmHg 26%
    10:00 +33°C° 0 mm 4 mps 754 mmHg 24%
    11:00 +34°C° 0 mm 4 mps 754 mmHg 21%
    12:00 +35°C° 0 mm 3 mps 753 mmHg 18%
    13:00 +35°C° 0 mm 3 mps 753 mmHg 18%
    14:00 +35°C° 0 mm 3 mps 753 mmHg 17%
    15:00 +36°C° 0 mm 3 mps 752 mmHg 16%
    16:00 +35°C° 0 mm 3 mps 753 mmHg 17%
    17:00 +35°C° 0 mm 4 mps 753 mmHg 18%
    18:00 +34°C° 0 mm 4 mps 753 mmHg 19%
    19:00 +33°C° 0 mm 5 mps 754 mmHg 25%
    20:00 +30°C° 0 mm 5 mps 755 mmHg 32%
    21:00 +28°C° 0 mm 6 mps 755 mmHg 38%
    22:00 +28°C° 0.3 mm 5 mps 756 mmHg 41%
    23:00 +27°C° 0.3 mm 4 mps 756 mmHg 44%

    Day after tomorrow, 27 April, Saturday

    Time Temperature Precipitation Wind Pressure Humidity
    00:00 +26°C° 0.3 mm 3 mps 756 mmHg 48%
    01:00 +26°C° 0 mm 3 mps 756 mmHg 47%
    02:00 +25°C° 0 mm 3 mps 756 mmHg 47%
    03:00 +25°C° 0 mm 3 mps 756 mmHg 47%
    04:00 +25°C° 0 mm 3 mps 756 mmHg 47%
    05:00 +24°C° 0 mm 3 mps 756 mmHg 46%
    06:00 +24°C° 0 mm 3 mps 756 mmHg 46%
    07:00 +25°C° 0 mm 3 mps 757 mmHg 43%
    08:00 +25°C° 0 mm 3 mps 757 mmHg 39%
    09:00 +26°C° 0 mm 3 mps 757 mmHg 36%
    10:00 +27°C° 0 mm 3 mps 757 mmHg 33%
    11:00 +28°C° 0 mm 3 mps 756 mmHg 30%
    12:00 +29°C° 0 mm 3 mps 756 mmHg 28%
    13:00 +29°C° 0 mm 3 mps 756 mmHg 25%
    14:00 +30°C° 0 mm 3 mps 755 mmHg 21%
    15:00 +30°C° 0 mm 4 mps 755 mmHg 18%
    16:00 +30°C° 0 mm 4 mps 755 mmHg 17%
    17:00 +30°C° 0 mm 3 mps 755 mmHg 16%
    18:00 +30°C° 0 mm 3 mps 755 mmHg 15%
    19:00 +29°C° 0 mm 3 mps 755 mmHg 17%
    20:00 +28°C° 0 mm 3 mps 756 mmHg 19%
    21:00 +27°C° 0 mm 2 mps 757 mmHg 21%
    22:00 +27°C° 0 mm 3 mps 757 mmHg 25%
    23:00 +26°C° 0 mm 3 mps 757 mmHg 28%

    28 April, Sunday

    Time Temperature Precipitation Wind Pressure Humidity
    00:00 +25°C° 0 mm 4 mps 757 mmHg 31%
    01:00 +23°C° 0 mm 4 mps 756 mmHg 35%
    02:00 +22°C° 0 mm 4 mps 756 mmHg 39%
    03:00 +21°C° 0 mm 5 mps 756 mmHg 43%
    04:00 +20°C° 0 mm 4 mps 756 mmHg 43%
    05:00 +20°C° 0 mm 3 mps 756 mmHg 43%
    06:00 +20°C° 0 mm 2 mps 756 mmHg 44%
    07:00 +21°C° 0 mm 2 mps 756 mmHg 41%
    08:00 +23°C° 0 mm 2 mps 757 mmHg 38%
    09:00 +23°C° 0 mm 2 mps 757 mmHg 36%
    10:00 +24°C° 0 mm 2 mps 756 mmHg 33%
    11:00 +25°C° 0 mm 3 mps 755 mmHg 31%
    12:00 +26°C° 0 mm 3 mps 755 mmHg 28%
    13:00 +27°C° 0 mm 2 mps 754 mmHg 26%
    14:00 +28°C° 0 mm 2 mps 754 mmHg 24%
    15:00 +28°C° 0 mm 2 mps 753 mmHg 22%
    16:00 +28°C° 0 mm 2 mps 753 mmHg 22%
    17:00 +28°C° 0 mm 2 mps 753 mmHg 22%
    18:00 +28°C° 0 mm 1 mps 752 mmHg 21%
    19:00 +28°C° 0 mm 2 mps 753 mmHg 23%
    20:00 +27°C° 0 mm 2 mps 753 mmHg 24%
    21:00 +26°C° 0 mm 2 mps 754 mmHg 25%
    22:00 +26°C° 0 mm 2 mps 754 mmHg 26%
    23:00 +25°C° 0 mm 2 mps 753 mmHg 26%

    29 April, Monday

    Time Temperature Precipitation Wind Pressure Humidity
    00:00 +24°C° 0 mm 2 mps 753 mmHg 27%
    01:00 +24°C° 0 mm 2 mps 753 mmHg 28%
    02:00 +23°C° 0 mm 2 mps 753 mmHg 29%
    03:00 +23°C° 0 mm 2 mps 752 mmHg 30%
    04:00 +22°C° 0 mm 3 mps 753 mmHg 31%
    05:00 +21°C° 0 mm 4 mps 753 mmHg 32%
    06:00 +21°C° 0 mm 4 mps 753 mmHg 32%
    07:00 +22°C° 0 mm 4 mps 753 mmHg 30%
    08:00 +23°C° 0 mm 4 mps 753 mmHg 27%
    09:00 +25°C° 0 mm 4 mps 753 mmHg 25%
    10:00 +26°C° 0 mm 4 mps 752 mmHg 23%
    11:00 +27°C° 0 mm 4 mps 752 mmHg 21%
    12:00 +28°C° 0 mm 3 mps 751 mmHg 20%
    13:00 +29°C° 0 mm 3 mps 750 mmHg 19%
    14:00 +29°C° 0 mm 3 mps 750 mmHg 19%
    15:00 +30°C° 0 mm 3 mps 749 mmHg 18%
    16:00 +30°C° 0.1 mm 3 mps 749 mmHg 19%
    17:00 +29°C° 0.1 mm 3 mps 749 mmHg 19%
    18:00 +29°C° 0.1 mm 3 mps 749 mmHg 20%
    19:00 +29°C° 0 mm 3 mps 750 mmHg 21%
    20:00 +28°C° 0 mm 3 mps 750 mmHg 22%
    21:00 +27°C° 0 mm 2 mps 751 mmHg 23%
    22:00 +27°C° 0 mm 2 mps 751 mmHg 24%
    23:00 +26°C° 0 mm 2 mps 750 mmHg 24%

    30 April, Tuesday

    Time Temperature Precipitation Wind Pressure Humidity
    00:00 +26°C° 0 mm 2 mps 750 mmHg 24%
    01:00 +26°C° 0 mm 3 mps 750 mmHg 25%
    02:00 +25°C° 0 mm 3 mps 750 mmHg 25%
    03:00 +25°C° 0 mm 3 mps 749 mmHg 26%
    04:00 +25°C° 0 mm 4 mps 749 mmHg 27%
    05:00 +25°C° 0 mm 5 mps 749 mmHg 29%
    06:00 +24°C° 0 mm 6 mps 749 mmHg 30%
    07:00 +24°C° 0 mm 6 mps 749 mmHg 29%
    08:00 +26°C° 0 mm 6 mps 749 mmHg 27%
    09:00 +27°C° 0 mm 6 mps 749 mmHg 26%
    10:00 +28°C° 0 mm 6 mps 749 mmHg 24%
    11:00 +29°C° 0 mm 5 mps 749 mmHg 23%
    12:00 +29°C° 0 mm 4 mps 748 mmHg 21%
    13:00 +30°C° 0.1 mm 4 mps 748 mmHg 21%
    14:00 +30°C° 0.1 mm 4 mps 747 mmHg 21%
    15:00 +31°C° 0.1 mm 3 mps 747 mmHg 21%
    16:00 +30°C° 0.2 mm 3 mps 747 mmHg 22%
    17:00 +30°C° 0.2 mm 3 mps 747 mmHg 23%
    18:00 +29°C° 0.2 mm 3 mps 747 mmHg 24%
    19:00 +29°C° 0.3 mm 3 mps 747 mmHg 26%
    20:00 +28°C° 0.3 mm 2 mps 748 mmHg 27%
    21:00 +28°C° 0.3 mm 2 mps 748 mmHg 29%
    22:00 +27°C° 0.2 mm 2 mps 748 mmHg 31%
    23:00 +27°C° 0.2 mm 1 mps 748 mmHg 32%
    Show more